TimeMST,TemperatureF,Dew PointF,Humidity,Sea Level PressureIn,VisibilityMPH,Wind Direction,Wind SpeedMPH,Gust SpeedMPH,PrecipitationIn,Events,Conditions,WindDirDegrees,DateUTC
12:15 AM,26.6,17.6,69,29.93,10.0,SE,10.4,-,N/A,,Overcast,140,2012-12-11 07:15:00
12:35 AM,26.6,17.6,69,29.93,10.0,West,8.1,-,N/A,,Overcast,260,2012-12-11 07:35:00
12:56 AM,28.4,17.6,64,29.92,10.0,WSW,8.1,-,N/A,,Overcast,250,2012-12-11 07:56:00
1:15 AM,28.4,17.6,64,29.93,10.0,West,5.8,-,N/A,,Overcast,270,2012-12-11 08:15:00
1:35 AM,26.6,17.6,69,29.93,10.0,South,8.1,-,N/A,,Overcast,180,2012-12-11 08:35:00
1:55 AM,26.6,17.6,69,29.93,10.0,Calm,Calm,-,N/A,,Overcast,0,2012-12-11 08:55:00
2:15 AM,26.6,17.6,69,29.92,10.0,South,11.5,16.1,N/A,,Overcast,170,2012-12-11 09:15:00
2:35 AM,26.6,17.6,69,29.93,10.0,South,8.1,-,N/A,,Overcast,190,2012-12-11 09:35:00
2:55 AM,26.6,17.6,69,29.93,10.0,South,12.7,19.6,N/A,,Overcast,180,2012-12-11 09:55:00
3:15 AM,26.6,17.6,69,29.93,10.0,SSW,10.4,-,N/A,,Overcast,210,2012-12-11 10:15:00
3:35 AM,26.6,17.6,69,29.93,10.0,SSW,11.5,-,N/A,,Overcast,210,2012-12-11 10:35:00
3:55 AM,26.6,17.6,69,29.93,10.0,SSW,12.7,16.1,N/A,,Overcast,200,2012-12-11 10:55:00
4:55 AM,24.8,19.4,80,29.93,10.0,South,12.7,-,N/A,,Overcast,170,2012-12-11 11:55:00
5:15 AM,26.6,19.4,74,29.92,10.0,WSW,6.9,-,N/A,,Overcast,250,2012-12-11 12:15:00
5:35 AM,24.8,17.6,74,29.92,10.0,Calm,Calm,-,N/A,,Overcast,0,2012-12-11 12:35:00
5:55 AM,24.8,19.4,80,29.92,10.0,Calm,Calm,-,N/A,,Overcast,0,2012-12-11 12:55:00
6:15 AM,26.6,19.4,74,29.91,10.0,WSW,8.1,-,N/A,,Overcast,240,2012-12-11 13:15:00
6:51 AM,26.6,19.4,74,29.90,10.0,Calm,Calm,-,N/A,,Mostly Cloudy,0,2012-12-11 13:51:00
7:51 AM,24.8,17.6,74,29.90,10.0,South,8.1,-,N/A,,Scattered Clouds,190,2012-12-11 14:51:00
8:52 AM,24.8,19.4,80,29.90,10.0,South,13.8,19.6,N/A,,Scattered Clouds,180,2012-12-11 15:52:00
9:59 AM,26.6,21.2,80,29.89,10.0,South,18.4,-,N/A,Snow,Snow,170,2012-12-11 16:59:00
10:58 AM,28.4,23.0,80,29.88,10.0,South,13.8,-,N/A,,Mostly Cloudy,170,2012-12-11 17:58:00
12:00 PM,26.6,24.8,93,29.86,2.0,South,15.0,19.6,N/A,Snow,Light Snow,170,2012-12-11 19:00:00
12:51 PM,28.4,26.6,93,29.83,7.0,SSW,10.4,-,N/A,,Mostly Cloudy,210,2012-12-11 19:51:00
1:51 PM,30.2,24.8,80,29.81,8.0,SSW,10.4,-,N/A,,Overcast,200,2012-12-11 20:51:00
2:53 PM,30.2,24.8,80,29.79,10.0,South,13.8,19.6,N/A,Snow,Snow,180,2012-12-11 21:53:00
3:53 PM,30.2,24.8,80,29.77,10.0,South,12.7,-,N/A,Snow,Snow,180,2012-12-11 22:53:00
4:51 PM,30.2,24.8,80,29.75,8.0,South,15.0,19.6,N/A,,Overcast,180,2012-12-11 23:51:00
5:51 PM,30.2,26.6,86,29.74,10.0,South,15.0,18.4,N/A,,Overcast,180,2012-12-12 00:51:00
6:56 PM,30.2,26.6,86,29.73,10.0,South,10.4,-,N/A,,Overcast,180,2012-12-12 01:56:00
7:52 PM,30.2,26.6,86,29.73,10.0,South,19.6,-,N/A,,Overcast,170,2012-12-12 02:52:00
8:51 PM,30.2,26.6,86,29.73,10.0,South,18.4,-,N/A,,Overcast,180,2012-12-12 03:51:00
8:55 PM,30.2,26.6,86,29.73,10.0,South,18.4,23.0,N/A,,Overcast,190,2012-12-12 03:55:00
9:15 PM,30.2,26.6,86,29.72,10.0,South,17.3,20.7,N/A,,Overcast,190,2012-12-12 04:15:00
9:35 PM,30.2,24.8,80,29.72,10.0,South,18.4,-,N/A,,Overcast,190,2012-12-12 04:35:00
10:15 PM,30.2,24.8,80,29.71,10.0,SSW,13.8,-,N/A,,Overcast,200,2012-12-12 05:15:00
10:35 PM,30.2,24.8,80,29.71,10.0,SSW,9.2,-,N/A,,Overcast,210,2012-12-12 05:35:00
10:55 PM,30.2,24.8,80,29.71,10.0,SSW,9.2,-,N/A,,Overcast,210,2012-12-12 05:55:00
11:15 PM,30.2,24.8,80,29.69,10.0,SSW,11.5,-,N/A,,Overcast,210,2012-12-12 06:15:00
11:35 PM,30.2,24.8,80,29.70,10.0,SSW,11.5,-,N/A,,Overcast,210,2012-12-12 06:35:00
11:55 PM,30.2,24.8,80,29.69,10.0,SSW,10.4,-,N/A,,Overcast,210,2012-12-12 06:55:00